Regional Weather Roundup
Issued by NWS

Home | Current Version | Previous Version | Graphics & Text | Print | Product List | Glossary On
Versions: 1 2 3 4 5 6 7 8 9 10 11 12 13 14 15 16 17 18 19 20 21 22 23 24 25 26 27 28 29 30 31 32 33 34 35 36 37 38 39 40 41 42 43 44 45 46 47 48 49 50
000
ASUS43 KOAX 221102
RWRNE

WEATHER ROUNDUP FOR NEBRASKA
NATIONAL WEATHER SERVICE OMAHA NE
600 AM CDT TUE JUL 22 2014

NOTES: SATELLITE DATA IS BEING USED TO AUGMENT CLOUD COVER ABOVE
       12000 FEET.
       "FAIR" INDICATES FEW OR NO CLOUDS BELOW 12,000 FEET WITH NO
       SIGNIFICANT WEATHER AND/OR OBSTRUCTIONS TO VISIBILITY.

  * THESE STATIONS DO NOT REPORT WEATHER SUCH AS RAIN...SNOW OR FOG.

NEZ001>004-019>022-054>056-221200-
NEBRASKA PANHANDLE

CITY           SKY/WX    TMP DP  RH WIND       PRES   REMARKS
SCOTTSBLUFF    CLEAR     70  60  70 NE18G26   30.14R
ALLIANCE       CLEAR     66  62  87 N7        30.16R
CHADRON        CLEAR     63  60  90 CALM      30.15R
SIDNEY         CLEAR     65  52  62 NW6       30.17R
$$

NEZ057>060-069>072-079>082-221200-
SOUTHWEST NEBRASKA

CITY           SKY/WX    TMP DP  RH WIND       PRES   REMARKS
NORTH PLATTE   PTCLDY    75  59  57 NE16G23   30.07R
IMPERIAL       PTCLDY    69  60  73 NE12      30.07R
MCCOOK         CLEAR     72  62  71 NE13G21   30.09R
$$

NEZ005>010-023>029-035>040-094-221200-
NORTH CENTRAL NEBRASKA

CITY           SKY/WX    TMP DP  RH WIND       PRES   REMARKS
VALENTINE      CLOUDY    70  66  87 N3        30.11S
BROKEN BOW     CLEAR     75  62  64 N14G28    30.06R
$$

NEZ041-046>049-061>064-073>077-083>087-221200-
SOUTH CENTRAL NEBRASKA

CITY           SKY/WX    TMP DP  RH WIND       PRES   REMARKS
GRAND ISLAND   MOCLDY    75  67  76 W9        30.01R
AURORA         MOCLDY    75  72  88 W7        29.99R
HASTINGS       MOCLDY    73  65  75 W7        30.03R
KEARNEY *      MOCLDY    75  63  64 W9        30.03R
$$

NEZ011>018-030>034-042>045-221200-
NORTHEAST NEBRASKA

CITY           SKY/WX    TMP DP  RH WIND       PRES   REMARKS
NORFOLK        PTCLDY    76  67  73 N15G28    29.97R
COLUMBUS *     MOCLDY    79  70  73 CALM      29.96R
FREMONT        MOCLDY    82  72  69 SW5       29.93R
TEKAMAH        MOCLDY    81  72  74 S3        29.90R
$$

NEZ050>053-065>068-078-088>093-221200-
SOUTHEAST NEBRASKA

CITY           SKY/WX    TMP DP  RH WIND       PRES   REMARKS
LINCOLN        PTCLDY    79  68  69 SW6       29.95R
OMAHA EPPLEY   CLOUDY    84  69  60 S6        29.92R
FALLS CITY     PTCLDY    77  74  90 SW9       29.95R
$$

NEZ044-045-051>053-067-221200-
OMAHA AREA

CITY           SKY/WX    TMP DP  RH WIND       PRES   REMARKS
OMAHA EPPLEY   CLOUDY    84  69  60 S6        29.92R
FREMONT        MOCLDY    82  72  69 SW5       29.93R
OFFUTT AFB     CLOUDY    80  73  79 S1        29.93R
$$



USA.gov is the U.S. government's official web portal to all federal, state and local government web resources and services.